Dewpoint
74 73 74 74 74 73 74 75 73 73 74 75 74 75 75 73 75 75 76 74 74 72 70 64 69 70 67 68 69 71 73 72 73 72 73 74 74 75 75 75 75 75 74 74 73 73 73 73 73 73 73 73 72 72 72 72 72 72 72 71 71 72 72 72 73 73 72 73 73 73 73 73 73 73 73 72 72 72 72 72 71 71 71 71 71
73 75 75 74 74 72 73 72 74 72 72 74 74 75 75 75 74 74 73 74 74 71 73 65 61 62 66 65 66 67 71 72 72 72 73 73 74 75 76 75 75 75 74 73 74 74 73 73 73 72 72 73 72 72 72 72 72 72 72 71 72 72 72 72 72 72 72 73 73 73 73 73 72 73 72 72 72 72 72 71 71 71 71 71 71
74 75 72 73 72 73 73 73 74 76 76 77 75 75 74 75 74 75 75 75 73 72 75 69 70 66 64 62 63 66 66 70 70 70 70 72 73 74 75 75 75 75 74 74 74 74 73 73 73 72 72 72 72 72 72 72 72 71 72 72 72 72 72 72 72 72 72 73 73 73 73 72 72 72 72 72 72 72 72 72 71 71 71 72 72
75 74 72 71 72 73 73 74 73 76 76 76 75 76 77 75 76 76 74 75 72 74 76 71 71 66 69 62 65 65 66 67 67 67 69 72 73 73 74 74 75 75 74 75 74 74 74 74 74 73 73 73 72 72 72 72 72 72 72 72 72 72 72 72 72 72 73 73 73 73 73 73 72 72 72 73 73 73 73 73 72 72 72 72 72
77 74 72 71 71 75 73 74 72 74 74 73 74 76 76 76 75 74 74 73 71 71 70 70 70 72 70 69 68 68 70 68 66 64 67 71 72 72 73 74 74 75 75 75 75 75 74 75 74 74 74 74 73 72 72 73 72 72 72 72 72 72 72 73 73 73 73 74 74 74 74 73 73 73 73 73 73 73 73 73 73 73 73 72 72
76 75 73 71 72 72 73 72 72 73 74 75 75 76 75 75 73 73 73 72 69 72 75 73 67 69 72 66 71 74 71 69 66 65 66 66 71 73 73 73 74 74 74 75 75 75 75 75 75 75 74 74 74 73 73 74 73 73 73 73 73 72 73 73 73 74 74 74 75 75 75 75 74 74 74 74 74 73 73 74 74 73 73 73 73
77 77 73 72 71 72 73 73 73 74 76 78 75 73 74 75 76 75 71 75 71 74 71 69 71 69 73 72 69 68 68 69 68 68 68 69 71 69 72 73 73 73 73 74 75 75 75 75 75 75 75 74 74 74 74 74 74 74 74 74 74 74 74 74 74 74 75 75 75 75 75 75 75 75 75 75 74 74 74 74 74 74 74 74 73
77 77 76 73 71 73 75 76 77 77 77 77 77 76 77 76 75 73 74 68 72 71 74 72 72 67 68 71 71 73 76 72 70 65 66 71 72 72 72 73 73 74 75 73 73 74 76 75 75 75 75 75 75 75 74 74 74 75 74 74 75 75 75 75 75 75 75 75 75 76 76 76 76 76 75 75 75 75 75 75 75 75 75 74 74
78 77 77 73 73 72 73 75 77 76 78 77 76 76 75 72 78 77 74 78 71 65 70 72 72 68 68 66 71 74 75 73 66 67 68 71 71 69 72 73 75 73 74 74 74 74 75 76 75 75 75 74 75 75 75 75 75 75 75 75 75 75 75 75 76 76 76 76 76 76 76 76 76 76 76 76 76 76 76 75 75 75 75 75 75
78 78 80 74 74 72 72 75 76 77 77 77 77 76 76 75 76 78 75 75 74 70 68 70 67 67 68 64 74 70 70 73 72 74 73 71 72 70 71 72 72 71 72 72 72 75 73 75 76 76 76 76 76 75 75 75 75 75 75 75 75 76 76 76 76 76 76 76 77 77 77 77 77 77 77 77 77 77 76 76 76 76 76 76 76
78 78 79 75 75 74 74 76 76 78 77 76 74 75 75 73 75 76 78 75 75 72 74 75 69 65 61 64 68 74 75 70 74 74 70 66 66 68 67 72 71 72 71 69 72 74 73 73 75 75 75 76 76 76 76 76 76 76 76 76 76 76 76 76 76 77 77 77 77 77 78 78 77 77 77 77 77 77 77 77 77 77 77 76 76
78 77 79 77 75 75 75 74 75 77 76 73 73 74 75 75 74 69 75 74 75 73 73 73 73 70 74 71 72 72 74 73 72 68 69 66 67 69 64 66 67 67 65 68 66 71 73 75 76 75 74 75 78 77 77 77 77 77 77 77 77 77 77 77 77 77 77 78 78 78 78 78 78 78 78 78 78 77 77 77 77 77 77 77 77
78 77 77 76 76 76 76 75 75 75 78 77 74 72 76 76 78 80 73 74 73 71 70 74 77 73 78 69 73 73 72 73 67 64 61 62 66 67 66 66 66 69 72 67 68 67 70 72 75 75 75 75 76 78 78 78 78 78 78 78 77 77 77 77 78 78 78 78 78 78 78 78 78 78 78 78 78 78 78 77 77 77 77 77 77
77 77 77 77 76 76 76 76 75 76 78 76 76 75 76 75 73 77 76 73 74 69 67 72 76 71 73 72 71 69 73 66 65 58 56 57 59 63 64 59 59 61 67 70 72 66 67 70 78 73 76 76 74 75 76 78 78 79 79 79 77 77 77 78 78 78 78 79 78 78 78 78 78 78 78 78 78 78 78 77 77 77 77 77 77
77 77 76 75 76 77 76 77 76 76 76 77 76 76 75 75 74 77 74 74 74 73 75 74 69 71 74 75 68 68 70 67 62 57 52 53 56 57 60 59 60 62 66 68 71 69 66 69 71 77 78 79 77 76 77 77 77 79 79 78 78 78 77 78 78 77 78 78 78 78 78 78 78 78 78 78 77 77 78 77 77 77 77 77 77
73 73 75 76 76 76 75 76 77 77 77 77 76 75 76 76 74 74 75 73 68 67 70 73 73 72 71 70 69 67 66 67 67 66 58 53 50 54 56 58 61 70 68 66 65 69 70 70 73 73 76 81 79 80 77 78 79 81 80 79 78 78 78 77 77 77 77 77 78 78 78 78 78 78 77 78 78 77 77 77 77 77 77 77 77
73 73 74 76 77 77 77 76 77 77 76 77 76 74 74 74 75 76 75 73 66 69 70 69 74 77 77 74 68 68 67 64 62 69 62 57 47 52 63 54 57 73 70 60 65 69 66 70 73 77 77 76 76 78 77 77 79 80 80 81 79 78 78 78 77 76 77 77 77 77 77 78 78 77 77 77 77 77 77 77 77 77 76 76 76
74 74 74 75 76 77 77 76 76 77 77 76 75 77 75 74 74 74 74 75 76 72 69 75 71 77 74 74 72 70 71 67 65 70 74 63 62 53 61 54 56 69 68 65 64 65 69 67 72 75 74 75 76 76 80 79 79 81 82 80 79 79 79 78 77 76 76 76 77 77 77 78 77 77 77 77 77 77 77 77 76 76 76 75 75
72 73 73 76 77 77 77 77 76 77 77 77 77 74 72 72 72 77 77 77 78 77 69 67 75 76 66 64 67 69 67 70 69 72 69 72 68 54 56 56 57 59 64 60 62 62 70 69 68 68 73 77 76 81 79 77 76 80 79 78 79 78 77 76 76 76 76 76 77 77 77 77 77 77 77 77 77 77 76 76 75 75 74 73 73
73 77 74 74 76 77 78 77 76 74 77 77 77 76 75 76 76 77 78 81 79 75 72 67 71 76 72 69 68 68 72 68 69 72 75 71 69 66 55 55 57 59 60 60 58 60 64 69 63 67 74 74 79 81 79 77 78 77 76 77 75 75 75 76 76 76 76 77 77 77 77 77 77 77 77 77 76 76 75 75 74 73 72 72 72
75 75 76 76 77 77 77 78 77 77 77 75 75 74 76 76 76 76 77 79 78 77 79 77 69 67 74 73 74 78 74 71 72 77 73 69 68 66 68 64 60 59 65 57 53 59 65 67 66 66 72 75 75 77 73 77 79 77 75 77 76 76 76 76 76 76 77 76 76 76 77 77 77 76 76 76 75 74 74 73 72 72 72 70 70
76 77 77 76 76 77 75 75 76 78 75 73 73 76 76 77 77 76 77 75 81 75 73 80 72 72 73 77 78 76 76 74 70 67 67 73 67 66 64 67 66 68 71 60 62 60 62 68 66 67 70 73 77 75 75 76 81 75 75 77 76 78 76 76 76 76 76 75 76 76 77 77 76 76 76 75 74 73 72 72 71 70 70 70 69
73 76 78 75 76 76 73 74 74 77 77 77 77 73 73 74 75 77 76 76 76 77 75 75 77 77 71 78 77 71 74 75 76 72 72 70 70 64 59 62 53 66 66 65 69 63 70 68 64 65 78 72 74 78 76 74 73 73 76 75 76 77 76 76 76 76 75 75 75 76 76 76 76 76 74 73 73 72 71 70 70 69 69 69 69
76 74 75 73 76 76 75 75 78 77 76 81 79 76 72 73 77 77 77 77 77 82 78 75 71 74 71 69 71 70 73 72 67 72 76 74 70 68 68 69 66 62 66 70 62 70 69 69 69 68 72 74 75 81 85 78 75 76 76 75 75 77 76 78 77 76 75 74 74 75 76 75 75 75 74 72 72 71 70 69 68 69 69 69 69
75 73 72 74 76 77 77 78 77 78 77 78 78 77 79 74 76 75 76 77 77 77 76 74 70 74 70 68 66 67 68 67 77 71 67 76 74 71 66 64 74 63 65 63 65 66 61 66 68 69 71 81 75 81 78 76 75 75 74 75 75 77 77 77 76 75 75 74 74 75 75 75 74 74 73 72 71 69 68 68 68 68 68 68 69
72 74 71 72 74 76 78 77 79 79 79 79 78 79 79 78 77 76 73 76 77 76 76 73 74 71 73 73 68 70 69 66 66 68 67 68 72 65 74 72 63 69 74 74 72 69 64 70 66 75 73 75 76 80 78 72 73 74 74 76 74 75 76 76 77 75 74 74 74 75 75 74 73 73 73 72 70 69 68 67 67 68 68 68 68
73 75 77 75 74 75 76 77 77 79 79 79 79 79 79 79 79 77 75 76 77 76 75 72 67 70 74 79 72 68 69 68 67 62 63 67 67 75 74 71 69 67 68 70 69 67 67 71 68 72 75 79 82 79 80 77 70 74 74 76 76 75 75 76 76 75 74 74 74 74 74 74 73 72 72 70 69 68 67 67 67 67 67 67 67
75 75 75 74 74 74 76 75 78 77 78 78 78 77 79 77 79 78 76 70 74 75 76 73 69 71 69 73 77 67 73 68 70 72 71 72 73 72 77 74 72 71 70 65 62 62 62 67 71 73 76 78 78 79 78 74 67 70 74 74 79 74 74 75 74 74 73 73 73 73 74 72 71 72 71 70 68 67 67 66 66 66 66 66 66
73 74 73 77 76 75 74 73 78 78 78 78 77 78 79 77 76 78 76 72 75 75 74 75 74 67 69 69 75 74 72 77 72 70 76 76 75 80 79 78 76 74 71 71 75 70 60 61 69 81 78 78 79 75 76 76 70 72 73 76 78 77 73 73 73 72 72 72 72 73 73 72 72 71 70 68 68 67 66 66 66 66 65 65 65
70 69 74 74 77 76 76 76 76 76 77 76 77 77 79 77 77 78 76 77 77 76 75 73 71 73 71 69 70 71 73 77 75 71 83 78 76 74 77 78 77 76 75 72 72 72 73 69 66 74 79 76 73 75 75 78 71 72 77 75 75 76 72 72 73 72 72 72 72 72 73 72 71 70 70 69 67 66 65 65 65 65 65 64 64
74 77 74 73 75 75 77 74 76 76 77 76 78 77 79 78 76 76 77 78 79 77 76 75 71 72 74 72 75 73 74 69 70 68 74 75 77 76 75 82 77 80 79 77 73 78 71 71 71 71 73 75 69 69 71 75 73 72 77 77 76 76 72 73 73 72 72 71 71 70 71 71 70 69 68 68 67 66 65 65 64 64 64 63 63
69 73 72 71 72 72 71 71 71 72 74 74 75 77 78 78 75 73 75 77 77 77 74 73 69 73 74 74 76 77 77 76 75 74 77 75 75 73 73 79 80 78 79 76 74 72 75 70 71 68 65 72 73 73 73 76 74 74 77 77 76 75 74 76 73 72 72 71 70 69 69 68 67 67 68 68 68 66 65 64 64 63 63 63 62
69 69 71 72 73 73 71 73 70 73 75 74 74 77 78 78 78 78 77 77 77 76 77 76 71 73 75 74 75 77 77 75 75 72 72 73 75 75 75 77 74 76 75 75 73 72 74 77 75 70 70 73 72 75 74 73 78 76 75 78 78 77 75 76 74 72 71 70 69 68 68 67 67 67 68 68 67 66 66 64 63 63 63 62 62
69 67 71 69 71 72 71 72 72 72 75 76 72 74 76 77 76 72 74 78 77 76 76 76 76 74 77 76 75 74 75 73 73 69 68 67 70 69 71 70 74 73 75 74 74 73 73 76 75 77 74 74 71 78 77 76 73 76 75 76 73 71 75 76 77 73 71 69 68 67 67 67 66 66 68 68 68 67 65 64 63 63 62 61 61
68 68 69 69 73 73 72 73 74 74 76 73 73 73 74 76 75 73 71 75 76 75 75 76 75 76 75 76 73 73 70 71 72 70 69 70 69 69 68 69 70 69 74 74 73 73 72 73 76 72 74 79 76 77 78 74 76 76 76 74 72 67 71 74 77 74 70 69 68 67 66 66 66 66 66 68 68 67 66 65 63 63 62 61 60
65 68 70 69 72 74 73 74 75 73 76 73 72 73 75 75 75 75 76 75 74 75 75 74 73 74 74 75 72 72 72 73 73 72 71 70 71 72 76 73 70 69 74 74 75 75 74 73 76 75 75 74 76 77 75 74 74 75 74 75 76 71 74 70 72 74 71 69 68 67 66 66 65 65 65 66 66 64 64 63 62 61 61 61 60
63 66 69 71 72 73 69 72 73 73 73 73 74 71 72 73 74 73 74 76 76 75 74 75 74 75 74 73 73 73 74 72 74 72 72 72 72 71 71 73 78 77 74 77 77 76 76 75 75 76 77 76 77 76 76 74 75 77 78 77 75 75 77 75 70 74 70 68 68 66 65 65 65 65 64 64 65 64 62 62 61 62 61 60 60
64 63 67 67 69 72 71 71 72 73 74 73 75 74 71 71 73 72 74 75 73 74 74 73 73 73 72 73 73 73 72 72 72 72 73 73 73 71 71 73 74 75 76 76 76 76 76 75 75 75 77 76 75 76 77 77 76 74 76 77 75 75 79 78 74 70 70 68 68 67 65 65 65 64 64 64 64 63 62 62 61 61 60 59 57
62 59 62 67 68 70 71 70 70 72 73 72 75 75 74 73 73 73 70 72 73 73 73 72 71 71 71 71 73 73 73 73 72 72 75 75 73 73 74 75 75 75 74 73 75 75 74 74 75 75 75 75 75 75 77 76 76 75 75 76 76 77 77 76 77 74 72 69 69 68 67 66 65 64 61 62 63 62 62 62 61 61 59 58 56
62 59 57 62 66 66 69 69 71 71 74 73 75 76 75 73 72 72 72 71 70 70 70 71 70 69 70 70 68 70 71 73 73 73 73 75 75 73 75 74 74 75 74 73 74 74 74 73 74 74 75 75 76 74 79 79 75 75 75 73 73 75 76 80 76 74 74 76 74 69 68 67 66 65 61 62 63 63 63 63 63 62 61 59 58
61 61 59 56 64 65 66 70 70 70 70 72 72 74 75 74 73 71 71 71 70 70 69 67 67 68 67 66 67 67 72 76 75 74 74 74 73 74 75 76 76 75 74 74 75 76 75 74 74 74 74 75 75 74 73 72 71 72 76 74 74 76 77 75 75 78 78 75 74 71 71 68 68 69 66 65 64 64 63 63 64 64 62 59 59
66 67 65 63 60 64 66 68 69 68 68 68 72 69 71 74 74 70 70 71 70 69 71 70 67 66 64 64 64 74 73 75 74 73 71 73 74 75 78 76 76 76 76 75 75 74 75 75 73 74 73 72 71 72 72 72 74 75 74 75 73 74 74 73 76 76 76 75 73 73 76 75 70 73 69 68 67 68 64 64 63 62 63 60 60
68 73 67 65 61 60 64 65 67 66 67 65 68 64 65 68 72 73 72 73 72 71 70 72 71 67 64 65 64 69 75 74 73 71 70 69 71 72 72 73 76 79 75 75 74 75 75 74 74 74 72 71 71 70 71 70 70 71 72 78 75 75 74 72 70 76 78 73 74 73 74 78 77 75 75 70 69 68 65 65 64 64 62 61 60
73 69 67 67 68 63 59 62 64 65 66 67 62 63 64 64 69 73 72 70 68 70 68 67 68 67 66 64 62 60 63 69 72 73 71 70 68 69 70 71 71 72 73 76 77 75 75 74 74 72 71 71 72 73 71 68 73 74 80 75 77 75 73 73 73 72 80 80 74 74 74 77 78 76 75 74 73 69 66 65 63 63 61 60 60
72 71 72 72 70 68 66 69 64 65 66 64 60 61 62 63 63 70 70 71 68 65 66 68 68 70 70 68 65 63 58 72 73 72 74 72 69 67 68 69 70 70 67 66 69 75 76 79 77 74 72 72 72 72 72 73 78 74 75 75 74 74 73 72 73 72 74 79 79 77 75 75 76 75 73 73 73 71 67 64 62 61 60 60 61
72 71 71 71 71 74 71 70 72 69 71 67 59 59 60 61 62 65 71 69 68 67 67 66 64 67 68 68 69 67 65 64 71 75 75 74 73 72 72 72 73 73 70 67 66 66 70 71 74 75 76 77 75 77 78 79 76 74 75 74 75 75 74 73 75 76 77 79 75 75 73 73 74 74 73 74 73 67 65 61 60 60 60 60 60
71 72 73 73 72 72 72 70 70 67 65 64 58 57 58 59 60 63 71 67 65 65 65 65 69 67 71 68 67 67 69 70 67 69 75 77 77 76 75 73 73 73 73 72 71 70 69 68 69 71 74 76 76 76 77 78 77 78 77 76 76 75 76 77 76 77 76 77 77 75 72 73 75 74 74 74 70 67 63 58 58 59 60 59 59
73 74 75 73 73 73 74 73 73 71 70 65 61 57 56 57 60 69 71 70 68 66 65 67 68 71 70 69 70 70 70 71 72 68 71 76 77 77 77 76 75 74 73 73 69 68 70 68 68 68 70 72 69 72 72 72 76 78 78 77 77 77 75 75 74 74 74 75 76 74 73 72 74 73 73 75 70 67 62 59 59 59 59 59 59
73 73 73 73 75 73 73 73 72 75 73 70 64 59 55 55 59 69 71 72 71 70 68 68 68 68 67 69 72 69 69 72 71 64 63 69 73 75 76 77 77 76 75 74 68 65 64 63 62 62 63 63 63 62 62 64 71 73 76 77 76 75 75 74 74 73 72 73 73 75 75 73 75 75 74 74 73 68 63 59 58 58 58 58 58
74 73 73 73 74 74 72 72 72 73 72 71 63 58 54 55 61 70 71 72 72 72 71 70 69 68 68 71 72 70 69 69 65 63 62 66 70 71 72 72 73 74 75 75 73 70 63 62 62 62 62 62 63 62 63 63 63 68 72 71 71 71 70 70 69 69 69 69 70 71 73 74 75 75 73 74 74 73 66 63 59 58 58 56 57
73 74 74 73 73 74 73 72 73 73 72 70 61 57 54 53 59 68 72 72 72 72 72 72 72 71 72 72 73 72 71 69 63 61 61 66 71 71 71 70 70 70 70 72 73 72 72 71 70 70 69 67 68 69 69 66 65 70 72 71 70 70 69 68 67 68 67 68 68 73 69 73 74 74 73 72 70 74 69 64 60 58 57 58 58